EW3975 Weather Reports


time (UTC)temp
C
wind
direction
speed
KPH
gust
KPH
rain 1hr
cm
rain 24hr
cm
rain mn
cm
humidity
%
barometer
mb
20260503175419 15 194 8.0 17.7 0.00 0.00 0.00 75
20260503174919 14 153 9.7 17.7 0.00 0.00 0.00 75
20260503174420 15 251 8.0 17.7 0.00 0.00 0.00 75
20260503173916 15 208 8.0 17.7 0.00 0.00 0.00 75
20260503173425 15 218 9.7 22.5 0.00 0.00 0.00 76
20260503173418 15 238 9.7 22.5 0.00 0.00 0.00 76
20260503172415 14 184 9.7 19.3 0.00 0.00 0.00 77
20260503171915 14 198 11.3 22.5 0.00 0.00 0.00 77
20260503171415 14 163 9.7 22.5 0.00 0.00 0.00 78
20260503170915 14 184 8.0 16.1 0.00 0.00 0.00 79
20260503170414 14 227 8.0 19.3 0.00 0.00 0.00 80
20260503150913 13 166 4.8 16.1 0.00 0.00 0.00 79
20260503150412 13 192 3.2 9.7 0.00 0.00 0.00 79
20260503130922 12 179 3.2 8.0 0.00 0.00 0.00 81
20260503130914 12 217 3.2 8.0 0.00 0.00 0.00 81
20260503110407 12 207 4.8 12.9 0.00 0.00 0.00 80
20260503090354 12 176 4.8 11.3 0.00 0.00 0.00 80
20260503081353 12 271 1.6 11.3 0.00 0.00 0.00 80
20260503080852 12 252 3.2 8.0 0.00 0.00 0.00 80
20260503080354 12 241 4.8 11.3 0.00 0.00 0.00 80
20260503072851 12 250 6.4 16.1 0.00 0.00 0.00 80
20260503072402 12 249 4.8 12.9 0.00 0.00 0.00 81
20260503072350 12 240 6.4 16.1 0.00 0.00 0.00 81
20260503071851 12 188 4.8 14.5 0.00 0.00 0.00 81
20260503071516 12 203 3.2 6.4 0.00 0.00 0.00 81
20260503070352 12 202 4.8 12.9 0.00 0.00 0.00 81
20260503054349 12 288 3.2 11.3 0.00 0.00 0.00 79
20260503053850 12 196 3.2 8.0 0.00 0.00 0.00 79
20260503053349 12 228 1.6 8.0 0.00 0.00 0.00 79
20260503052857 12 182 1.6 9.7 0.00 0.00 0.00 80
20260503052850 12 214 1.6 9.7 0.00 0.00 0.00 79
20260503051850 12 306 3.2 9.7 0.00 0.00 0.00 79
20260503051349 12 254 4.8 14.5 0.00 0.00 0.00 79
20260503050859 12 220 4.8 9.7 0.00 0.00 0.00 80
20260503050849 12 204 4.8 14.5 0.00 0.00 0.00 79
20260503050349 12 192 3.2 9.7 0.00 0.00 0.00 80
20260503045349 12 250 4.8 16.1 0.00 0.00 0.00 80
20260503044849 12 227 4.8 16.1 0.00 0.00 0.00 80
20260503044348 12 259 4.8 14.5 0.00 0.00 0.00 80
20260503043849 12 205 3.2 11.3 0.00 0.00 0.00 80
20260503043349 12 150 1.6 8.0 0.00 0.00 0.00 80
20260503042848 12 234 3.2 8.0 0.00 0.00 0.00 80
20260503042350 12 175 1.6 6.4 0.00 0.00 0.00 80
20260503041849 12 190 1.6 6.4 0.00 0.00 0.00 80
20260503041348 12 214 3.2 14.5 0.00 0.00 0.00 79
20260503040850 12 200 4.8 14.5 0.00 0.00 0.00 80
20260503040357 12 167 6.4 19.3 0.00 0.00 0.00 79
20260503040348 12 270 6.4 14.5 0.00 0.00 0.00 79
20260503035349 12 223 8.0 19.3 0.00 0.00 0.00 79
20260503034907 12 165 8.0 19.3 0.00 0.00 0.00 79
20260503034848 12 240 8.0 19.3 0.00 0.00 0.00 79
20260503034522 12 218 6.4 17.7 0.00 0.00 0.00 79
20260503034029 12 228 6.4 17.7 0.00 0.00 0.00 79
20260503033848 12 200 8.0 14.5 0.00 0.00 0.00 79
20260503032349 12 244 6.4 16.1 0.00 0.00 0.00 78
20260503031848 12 229 4.8 16.1 0.00 0.00 0.00 78
20260503031347 12 187 6.4 19.3 0.00 0.00 0.00 78
20260503030846 13 238 6.4 19.3 0.00 0.00 0.00 77
20260503030347 13 230 6.4 20.9 0.00 0.00 0.00 77
20260503025846 13 215 9.7 20.9 0.00 0.00 0.00 77
20260503025345 13 205 8.0 17.7 0.00 0.00 0.00 76
20260503024845 13 279 8.0 20.9 0.00 0.00 0.00 76
20260503024346 13 187 8.0 22.5 0.00 0.00 0.00 76
20260503023847 13 188 9.7 22.5 0.00 0.00 0.00 75
20260503023345 13 200 8.0 20.9 0.00 0.00 0.00 75
20260503022846 13 170 6.4 16.1 0.00 0.00 0.00 75
20260503022343 13 182 8.0 22.5 0.00 0.00 0.00 74
20260503021845 13 182 9.7 22.5 0.00 0.00 0.00 74
20260503021345 13 168 9.7 20.9 0.00 0.00 0.00 74
20260503020850 14 238 11.3 20.9 0.00 0.00 0.00 73
20260503020843 13 191 11.3 20.9 0.00 0.00 0.00 74
20260503015844 14 225 11.3 22.5 0.00 0.00 0.00 73
20260503015343 14 153 11.3 22.5 0.00 0.00 0.00 73
20260503014843 14 207 11.3 22.5 0.00 0.00 0.00 72
20260503014345 15 233 11.3 20.9 0.00 0.00 0.00 72
20260503013844 15 202 12.9 24.1 0.00 0.00 0.00 71
20260503013343 15 151 12.9 24.1 0.00 0.00 0.00 71
20260503012843 15 213 11.3 24.1 0.00 0.00 0.00 71
20260503012344 15 205 11.3 25.7 0.00 0.00 0.00 70
20260503011844 15 235 11.3 25.7 0.00 0.00 0.00 70
20260503011343 15 234 9.7 24.1 0.00 0.00 0.00 70
20260503010843 16 180 9.7 24.1 0.00 0.00 0.00 70
20260503010344 16 261 9.7 24.1 0.00 0.00 0.00 69
20260503005841 16 225 11.3 24.1 0.00 0.00 0.00 69
20260503005342 16 213 11.3 24.1 0.00 0.00 0.00 69
20260503004843 16 157 12.9 30.6 0.00 0.00 0.00 69
20260503004341 16 202 16.1 30.6 0.00 0.00 0.00 68
20260503003841 16 186 16.1 30.6 0.00 0.00 0.00 68
20260503003341 16 175 12.9 30.6 0.00 0.00 0.00 68
20260503002841 16 219 12.9 30.6 0.00 0.00 0.00 68
20260503002342 16 202 14.5 30.6 0.00 0.00 0.00 68
20260503001842 16 212 12.9 27.4 0.00 0.00 0.00 67
20260503001342 16 168 11.3 33.8 0.00 0.00 0.00 67
20260503000841 17 241 9.7 33.8 0.00 0.00 0.00 68
20260503000341 16 267 11.3 29.0 0.00 0.00 0.00 69
20260502235841 16 247 12.9 29.0 0.00 0.00 0.00 68
20260502235347 16 281 12.9 30.6 0.00 0.00 0.00 67
20260502235339 16 201 14.5 30.6 0.00 0.00 0.00 68
20260502235003 17 237 12.9 27.4 0.00 0.00 0.00 66
20260502234341 17 213 12.9 29.0 0.00 0.00 0.00 67
20260502233339 17 217 12.9 33.8 0.00 0.00 0.00 65
20260502232840 17 233 12.9 33.8 0.00 0.00 0.00 65
20260502232346 17 244 11.3 29.0 0.00 0.00 0.00 65
20260502232339 17 171 11.3 29.0 0.00 0.00 0.00 65
20260502231339 17 330 11.3 27.4 0.00 0.00 0.00 65
20260502230841 17 210 11.3 24.1 0.00 0.00 0.00 66
20260502230339 17 240 11.3 25.7 0.00 0.00 0.00 65
20260502225839 17 242 11.3 25.7 0.00 0.00 0.00 64
20260502225346 17 235 12.9 27.4 0.00 0.00 0.00 66
20260502225339 17 192 12.9 24.1 0.00 0.00 0.00 66
20260502225005 17 176 12.9 30.6 0.00 0.00 0.00 66
20260502223840 17 237 12.9 30.6 0.00 0.00 0.00 66
20260502223337 17 286 11.3 30.6 0.00 0.00 0.00 66
20260502222838 17 227 12.9 24.1 0.00 0.00 0.00 66
20260502222345 17 199 14.5 30.6 0.00 0.00 0.00 68
20260502222338 17 210 12.9 25.7 0.00 0.00 0.00 67
20260502221346 16 232 16.1 30.6 0.00 0.00 0.00 68
20260502221336 16 277 16.1 30.6 0.00 0.00 0.00 68
20260502220836 16 201 16.1 30.6 0.00 0.00 0.00 68
20260502220458 16 240 16.1 32.2 0.00 0.00 0.00 68
20260502215343 16 222 14.5 27.4 0.00 0.00 0.00 68
20260502215336 16 244 14.5 32.2 0.00 0.00 0.00 69
20260502214335 17 215 12.9 27.4 0.00 0.00 0.00 68
20260502213835 17 241 14.5 25.7 0.00 0.00 0.00 69
20260502213336 16 223 12.9 27.4 0.00 0.00 0.00 69
20260502212836 16 190 14.5 27.4 0.00 0.00 0.00 70
20260502212333 16 234 14.5 27.4 0.00 0.00 0.00 69
20260502211835 17 215 14.5 27.4 0.00 0.00 0.00 69
20260502211333 17 196 14.5 30.6 0.00 0.00 0.00 69
20260502210833 17 200 14.5 32.2 0.00 0.00 0.00 69
20260502210336 17 240 12.9 32.2 0.00 0.00 0.00 70
20260502205832 17 277 11.3 29.0 0.00 0.00 0.00 70
20260502205333 16 284 12.9 29.0 0.00 0.00 0.00 72
20260502204834 16 293 12.9 25.7 0.00 0.00 0.00 71
20260502204333 16 244 12.9 25.7 0.00 0.00 0.00 71
20260502203834 16 248 12.9 25.7 0.00 0.00 0.00 72
20260502203331 16 190 14.5 27.4 0.00 0.00 0.00 72
20260502202832 16 242 12.9 27.4 0.00 0.00 0.00 71
20260502202331 16 238 12.9 27.4 0.00 0.00 0.00 72
20260502201831 16 215 12.9 27.4 0.00 0.00 0.00 72
20260502201333 16 217 12.9 25.7 0.00 0.00 0.00 72
20260502200831 16 236 12.9 24.1 0.00 0.00 0.00 72
20260502200331 16 192 11.3 24.1 0.00 0.00 0.00 72
20260502195830 16 194 11.3 20.9 0.00 0.00 0.00 73
20260502195331 16 241 12.9 29.0 0.00 0.00 0.00 73
20260502194832 16 297 11.3 29.0 0.00 0.00 0.00 72
20260502194330 16 167 11.3 22.5 0.00 0.00 0.00 73
20260502193839 16 172 12.9 27.4 0.00 0.00 0.00 74
20260502193830 16 262 11.3 22.5 0.00 0.00 0.00 73
20260502193329 16 180 12.9 27.4 0.00 0.00 0.00 74
20260502192330 16 175 9.7 22.5 0.00 0.00 0.00 76
20260502191829 16 242 11.3 25.7 0.00 0.00 0.00 76
20260502191329 16 180 12.9 25.7 0.00 0.00 0.00 76
20260502190830 15 169 12.9 24.1 0.00 0.00 0.00 76
20260502190332 15 200 11.3 24.1 0.00 0.00 0.00 77
20260502185838 15 188 11.3 24.1 0.00 0.00 0.00 78
20260502185831 15 172 11.3 20.9 0.00 0.00 0.00 78
20260502185451 15 184 11.3 24.1 0.00 0.00 0.00 78
20260502184830 15 223 12.9 24.1 0.00 0.00 0.00 78
20260502183827 15 190 11.3 25.7 0.00 0.00 0.00 79
20260502183336 15 184 12.9 25.7 0.00 0.00 0.00 79
20260502183328 15 225 12.9 25.7 0.00 0.00 0.00 79
20260502182327 15 242 11.3 25.7 0.00 0.00 0.00 80
20260502181951 14 188 9.7 20.9 0.00 0.00 0.00 81
20260502181836 14 170 9.7 20.9 0.00 0.00 0.00 81
20260502181828 14 180 11.3 25.7 0.00 0.00 0.00 80
20260502180325 14 167 9.7 24.1 0.00 0.00 0.00 82